Location: Ambro?ew
(52.0296°N, 19.3153°E)
Time: 06:39:12
(UTC+00:00)

Daily predictions for brighter satellites

Satellite Brightness Start Highest point End
(mag) Time Altitude Azimuth Time Altitude Azimuth Time Altitude Azimuth
Cosmos 2218 Rocket 4.3 18:49:15 10° SSW 18:55:26 77° WNW 19:01:37 10° N
Cosmos 1782 4.1 18:52:10 10° NNW 18:56:00 44° W 18:59:50 10° SSW
H-2A R/B 4.2 18:54:18 10° SSW 18:58:36 26° W 19:02:49 10° NW
Cosmos 1980 Rocket 2.8 18:53:55 10° NNW 18:59:27 48° NE 19:04:54 10° SE
SPOT 5 4.2 18:57:31 10° ESE 19:00:45 21° ENE 19:04:03 10° N
Cosmos 1805 Rocket 3.7 18:57:16 10° S 19:01:37 56° E 19:06:00 10° NNE
Cosmos 972 4.5 18:57:37 10° NNW 19:02:59 82° ENE 19:07:56 10° SSE
ERBS 2.2 18:59:58 10° WSW 19:03:19 84° SSE 19:06:38 10° ENE
DMSP B5D2-2 4.2 18:58:39 10° NNE 19:03:55 87° WNW 19:09:09 10° SSW
SPOT 1/Viking Rocket 4.2 18:59:58 10° SE 19:04:50 41° ENE 19:09:44 10° N
ATLAS 5 CENTAUR R/B 3.0 19:02:42 10° NW 19:08:08 51° SW 19:14:25 10° SSE
Cosmos 1140 Rocket 4.2 19:06:38 10° SSE 19:11:16 33° ESE 19:15:56 10° NE
SL-4 R/B 3.3 19:08:37 10° S 19:11:21 18° SE 19:13:58 10° E
Genesis I 3.7 19:08:17 10° NW 19:12:06 52° NE 19:15:51 10° ESE
Cosmos 1697 Rocket 2.7 19:09:42 10° NNW 19:15:21 87° WSW 19:20:59 10° SSE
Cosmos 2228 Rocket 4.2 19:12:03 10° NNW 19:16:19 46° W 19:20:31 10° SSW
Cosmos 1833 Rocket 2.9 19:13:01 10° S 19:18:24 48° ESE 19:23:48 10° NE
Cosmos 389 Rocket 3.1 19:16:08 10° NNW 19:19:29 53° W 19:22:51 10° S
CENTAUR R/B 4.1 19:17:47 10° ESE 19:19:57 12° E 19:22:12 10° E
Cosmos 1812 3.1 19:17:31 10° NNW 19:21:21 67° W 19:25:09 10° S
SPOT 3 Rocket 4.3 19:17:22 10° S 19:22:28 54° W 19:27:34 10° NNW
Cosmos 1633 Rocket 3.6 19:19:07 10° SSE 19:23:15 40° E 19:27:24 10° NNE
Cosmos 2251 Rocket 4.1 19:20:11 10° SW 19:25:24 62° WNW 19:30:41 10° NNE
Cosmos 1707 Rocket 3.6 19:26:27 10° NNW 19:30:50 84° W 19:35:09 10° S
Resurs 01 Rocket 2.4 19:29:15 10° S 19:33:33 53° W 19:37:55 10° NNW
Landsat 7 3.8 19:30:13 10° SSE 19:34:58 80° ENE 19:39:46 10° NNW
FALCON 9 DEB 4.5 19:36:54 10° S 19:39:32 20° SE 19:41:53 11° E
Cosmos 1441 Rocket 3.5 19:36:01 10° SSW 19:39:48 70° WNW 19:43:35 10° N
Cosmos 192 4.4 19:35:03 10° NNW 19:39:58 67° ENE 19:43:58 15° SE
Cosmos 1934 Rocket 4.1 19:34:15 10° S 19:40:33 65° E 19:46:51 10° NNE
Cosmos 2360 4.4 19:36:35 10° NNW 19:42:20 74° WSW 19:47:32 13° SSE
Cosmos 614 Rocket 4.0 19:38:36 10° SSW 19:43:47 89° WNW 19:49:02 10° NNE
NOSS 3-2 (A) 4.2 19:40:01 10° S 19:44:49 28° ESE 19:50:11 10° ENE
IGS 5A 3.5 19:41:07 11° SSE 19:45:08 82° WSW 19:49:19 10° NNW
USA 267 3.2 19:39:16 10° ENE 19:45:47 64° SE 19:52:16 10° SW
Cosmos 1470 Rocket 4.1 19:42:24 13° SSE 19:45:54 39° E 19:50:01 10° NNE
GP-B 3.1 19:44:37 10° N 19:49:05 71° E 19:53:14 12° S
SWAS 4.4 19:46:55 10° SSW 19:51:11 63° ESE 19:55:29 10° NE
Cosmos 1821 Rocket 4.3 19:47:42 10° SSW 19:53:49 70° WNW 20:00:05 10° N
Meteor 2-20 Rocket 4.5 19:48:28 10° N 19:54:41 88° ENE 20:00:27 12° S
Cosmos 921 Rocket 3.1 19:51:02 10° NNW 19:55:17 62° ENE 19:58:03 20° SE
COSMOS 2406 3.5 19:50:38 10° SW 19:56:22 73° WNW 20:02:08 10° NNE
Cosmos 1862 Rocket 3.6 19:52:51 10° N 19:57:22 89° W 20:01:01 15° S
SL-16 R/B 2.9 19:52:44 10° NNW 19:58:12 44° NE 20:02:26 16° ESE
ERS-1 Rocket 3.0 19:56:08 16° SSE 20:00:07 76° ENE 20:05:10 10° NNW
Cosmos 468 Rocket 4.4 19:56:45 10° NNW 20:02:01 55° ENE 20:05:37 20° SE
Lacrosse 5 2.0 19:57:06 10° WNW 20:02:12 72° NNE 20:06:22 15° ESE
Cosmos 2369 4.5 19:57:31 10° NW 20:03:00 47° WSW 20:08:05 12° S
SAR-Lupe-2 4.0 20:02:23 10° NNE 20:05:50 42° E 20:07:36 24° SSE
Sich 1 4.1 20:01:46 10° SSW 20:06:04 48° WNW 20:10:24 10° N
Cosmos 2219 Rocket 4.4 20:04:45 10° NNW 20:08:35 18° NNE 20:12:25 10° ENE
BREEZE-M DEB (TANK) 1.9 20:07:33 10° W 20:09:48 40° S 20:09:54 40° S
Cosmos 2082 Rocket 2.1 20:05:45 10° SSW 20:11:25 71° ESE 20:17:05 10° NE
NOSS 2 (A) 4.0 20:08:56 10° NW 20:11:39 80° SW 20:12:18 44° SSE
Cosmos 2123 Rocket 4.4 20:05:45 10° NNW 20:11:53 64° W 20:18:02 10° S
Cosmos 2278 4.2 20:06:46 10° NW 20:12:22 57° WSW 20:16:44 17° S
Cosmos 1954 Rocket 4.0 20:07:51 10° S 20:13:06 63° ESE 20:18:22 10° NNE
Spot 2 Rocket 4.3 20:11:25 10° S 20:16:17 49° W 20:21:15 10° NNW
Meteor 1-4 Rocket 4.0 20:16:33 10° NNW 20:19:42 32° W 20:22:26 12° SSW
Cosmos 2322 Rocket 2.7 20:15:07 10° NNW 20:20:41 51° NE 20:24:25 20° ESE
CARTOSAT-1 3.8 20:20:05 20° S 20:23:01 68° WSW 20:27:21 10° NNW
USA 234 3.7 20:18:46 20° SSE 20:23:12 50° SW 20:29:33 10° WNW
Cosmos 1184 Rocket 3.0 20:21:02 16° SSW 20:23:31 71° WNW 20:26:50 10° N
Terra 1.8 20:21:08 24° SSE 20:24:04 80° ENE 20:28:52 10° NNW
Cosmos 1190 Rocket 4.3 20:18:54 10° SSW 20:24:10 72° WNW 20:29:31 10° NNE
Cosmos 1933 Rocket 3.5 20:24:16 22° S 20:27:04 70° E 20:31:30 10° NNE
Cosmos 407 Rocket 4.2 20:21:56 10° SW 20:27:10 58° WNW 20:32:25 10° NNE
Cosmos 1605 Rocket 3.9 20:21:07 10° S 20:27:11 88° E 20:33:19 10° N
Meteor 1-20 Rocket 4.3 20:23:25 11° S 20:29:03 86° ESE 20:34:58 10° NNE
Cosmos 1238 Rocket 2.0 20:28:02 31° SSW 20:29:20 87° W 20:32:19 10° N
Okean 1 3.3 20:25:18 10° NNW 20:29:22 86° W 20:31:27 28° S
Cosmos 1602 3.7 20:31:37 27° S 20:33:38 74° E 20:37:35 10° NNE
Cosmos 1437 Rocket 2.6 20:30:07 10° N 20:33:58 75° ENE 20:35:27 35° SSE
ATLAS 3B R/B 4.0 20:34:00 17° ESE 20:34:21 17° ESE 20:38:16 10° ENE
Cosmos 2360 Rocket 3.1 20:29:28 10° NNW 20:34:50 40° NE 20:38:35 18° ESE
Cosmos 1869 Rocket 4.2 20:35:52 30° SE 20:37:18 38° E 20:41:26 10° NNE
SPOT 5 3.0 20:35:54 22° S 20:38:31 56° W 20:42:50 10° NNW
Meteor 1-19 Rocket 4.1 20:33:29 10° NNW 20:38:56 84° W 20:42:13 25° S
ERBS 3.8 20:36:43 10° W 20:39:50 36° N 20:42:56 10° ENE
Cosmos 2173 Rocket 4.3 20:36:35 25° SSE 20:39:51 47° E 20:45:40 10° NNE
USA 238 DEB 3.7 20:33:51 10° SSW 20:40:21 60° SE 20:47:09 10° NE
USA 238 3.7 20:33:58 10° SSW 20:40:27 59° SE 20:47:15 10° NE
Cosmos 1980 Rocket 3.2 20:38:09 10° NW 20:43:22 38° WSW 20:47:05 18° SSW
Geosat 4.2 20:40:38 26° SE 20:43:24 65° NE 20:48:24 10° NNW
Iridium 4 Rocket 3.6 20:41:58 31° SE 20:43:24 42° E 20:47:24 10° NNE
Cosmos 2242 Rocket 3.9 20:40:38 10° NNW 20:45:02 61° W 20:47:29 25° SSW
Cosmos 1703 Rocket 3.5 20:40:40 10° NNW 20:45:04 80° W 20:47:05 31° S
Cosmos 1763 Rocket 3.5 20:43:04 10° NNW 20:48:26 80° WSW 20:51:08 30° SSE
SL-4 R/B 1.7 20:46:43 10° WSW 20:50:27 55° SSE 20:51:35 37° ESE
Meteor 1-14 Rocket 4.3 20:46:53 22° S 20:50:48 78° E 20:56:46 10° NNE
Cosmos 1500 3.5 20:50:18 40° ESE 20:50:54 44° E 20:54:29 10° NNE
BREEZE-M DEB (TANK) 3.1 20:47:36 10° W 20:50:57 69° S 21:01:57 10° E
Cosmos 405 Rocket 2.8 20:49:22 26° SSW 20:51:18 70° WNW 20:55:02 10° N
ALOS 2 4.2 20:50:20 18° E 20:52:12 24° ENE 20:55:41 10° N
MOS 1-B Rocket 4.3 20:48:41 10° NNE 20:54:06 41° E 20:56:13 30° SE
Cosmos 2333 Rocket 3.7 20:49:48 10° NNW 20:54:51 30° NE 20:59:21 12° E
Cosmos 2016 Rocket 4.5 20:55:14 28° SE 20:58:05 45° E 21:04:06 10° NNE
Meteor 1-13 Rocket 4.4 20:52:56 10° N 20:58:27 59° ENE 21:00:56 32° SE
Cosmos 2061 Rocket 4.4 20:56:26 29° SE 20:59:08 45° E 21:04:59 10° NNE
Cosmos 1536 4.2 20:58:57 23° E 20:59:11 23° E 21:02:23 10° NE
Cosmos 1459 Rocket 4.1 20:58:06 28° SSE 21:01:31 65° E 21:07:49 10° NNE
Cosmos 1833 Rocket 4.1 20:57:13 10° WSW 21:02:28 39° NW 21:07:46 10° NNE
Cosmos 1666 3.8 21:02:40 28° E 21:02:43 28° E 21:05:58 10° NNE
Okean 1-7 3.5 21:02:26 10° NNW 21:06:42 55° W 21:08:30 31° SSW
Cosmos 2221 Rocket 3.8 21:03:15 10° N 21:07:40 58° ENE 21:09:01 40° SE
CENTAUR R/B 2.6 21:04:46 21° SSW 21:08:49 56° SE 21:15:48 10° NE
Cosmos 1867 3.7 21:03:23 10° SW 21:08:50 75° NW 21:14:20 10° NE
Okean 3 3.4 21:08:30 10° N 21:12:49 77° E 21:13:59 47° SSE
Cosmos 967 Rocket 4.5 21:06:53 10° NW 21:13:19 85° NE 21:16:35 31° SE
Cosmos 1733 Rocket 4.0 21:13:55 30° ESE 21:14:29 31° E 21:18:22 10° NNE
Thor Agena Rocket 4.1 21:10:23 10° NNE 21:15:12 41° E 21:16:25 35° SE
FALCON 9 DEB 3.5 21:12:40 10° WSW 21:15:22 49° SW 21:15:22 49° SW
Meteor 2-4 Rocket 3.8 21:10:32 10° NNW 21:16:14 70° W 21:18:54 32° S
Cosmos 1802 Rocket 4.1 21:13:52 31° S 21:17:05 69° E 21:23:25 10° NNE
Cosmos 1850 Rocket 3.9 21:14:19 26° SSW 21:17:23 85° ESE 21:22:42 10° NNE
SL-27 R/B 2.3 21:19:37 63° E 21:19:37 63° E 21:22:43 10° NNE
Cosmos 44 3.3 21:16:34 10° NW 21:21:27 79° SW 21:23:08 42° SSE
ATLAS 5 CENTAUR R/B 1.9 21:19:06 10° NW 21:21:46 74° SW 21:23:25 39° SE
Cosmos 2346 Rocket 4.4 21:18:08 10° N 21:24:14 83° E 21:26:55 36° SSE
USA 267 3.6 21:22:24 10° ENE 21:28:54 69° NNW 21:35:24 10° W
Spot 4 3.8 21:27:26 44° SSE 21:28:59 85° ENE 21:33:50 10° NNW
BREEZE-M DEB (TANK) 4.4 21:18:51 10° W 21:32:57 55° S 21:35:19 32° SE
NOSS 3-2 (A) 3.6 21:29:07 10° SW 21:34:59 76° NW 21:41:51 10° NE
Cosmos 1378 4.0 21:34:02 10° N 21:37:33 37° ENE 21:37:53 36° E
Cosmos 1816 Rocket 4.4 21:32:59 10° N 21:39:19 87° ENE 21:41:57 38° S
Cosmos 841 Rocket 3.8 21:35:14 10° NNW 21:40:21 56° WSW 21:42:00 39° SSW
NOSS 3-2 (C) 3.4 21:35:51 15° SW 21:40:48 85° SE 21:47:36 10° NE
Cosmos 540 Rocket 3.8 21:36:44 10° NNW 21:41:47 57° WSW 21:43:22 40° SSW
SL-16 R/B 2.9 21:37:00 10° NW 21:42:19 42° WSW 21:44:17 31° SSW
Lacrosse 5 2.4 21:40:16 10° WNW 21:44:58 39° SW 21:45:31 37° SSW
Cosmos 2322 3.9 21:39:29 10° NNW 21:45:09 64° NE 21:47:37 34° SE
Cosmos 1378 Rocket 3.8 21:46:29 10° N 21:50:55 59° ENE 21:51:46 49° ESE
Tsikada Rocket 4.0 21:45:55 10° N 21:52:21 86° W 21:54:55 39° S
Cosmos 2208 Rocket 4.4 21:48:36 10° NNW 21:53:43 51° WSW 21:55:11 39° SSW
Cosmos 2219 Rocket 2.7 21:48:16 10° NNW 21:53:52 54° NE 21:56:38 29° ESE
Cosmos 1814 Rocket 4.3 21:49:03 10° NNW 21:54:07 53° WSW 21:55:32 41° SSW
Cosmos 2082 Rocket 4.0 21:51:03 10° WSW 21:56:01 30° NW 22:00:59 10° NNE
COSMOS 2487 3.8 21:58:46 29° ENE 21:58:46 29° ENE 22:01:01 10° NE
Cosmos 2237 4.4 21:53:15 10° NW 21:58:53 61° WSW 22:00:34 43° S
Cosmos 2084 Rocket 3.3 21:59:01 68° S 21:59:23 74° SE 22:03:43 10° NE
Cosmos 2333 4.3 21:53:45 10° NNW 21:59:36 78° ENE 22:01:49 39° SE
Terra 4.0 22:00:02 12° WSW 22:02:26 16° W 22:05:23 10° NW
Cosmos 1975 Rocket 4.3 22:00:04 10° N 22:04:06 31° ENE 22:05:17 27° E
Cosmos 2322 Rocket 3.1 21:59:27 10° NW 22:04:36 36° WSW 22:06:13 30° SW
EO 1 Del DPAF 3.0 22:00:59 10° NNE 22:04:46 86° WNW 22:04:57 80° SW
GRACE-FO 1 4.5 22:04:40 10° N 22:08:16 87° NNE 22:08:16 87° NNE
GRACE-FO 2 4.5 22:05:03 10° N 22:08:39 87° NNE 22:08:39 87° NNE
Meteor 1-11 Rocket 3.9 22:09:09 36° SSW 22:11:30 70° WNW 22:17:16 10° N
Cosmos 1242 Rocket 2.9 22:08:41 10° NNW 22:12:07 56° W 22:12:07 56° W
Cosmos 1486 Rocket 4.3 22:11:53 43° SE 22:12:37 46° ESE 22:17:36 10° NE
Helios 1A 3.4 22:13:11 46° ESE 22:13:54 53° ENE 22:18:02 10° N
ERBS 3.6 22:13:29 10° WNW 22:16:38 38° NNE 22:18:11 23° ENE
Cosmos 2360 Rocket 2.6 22:13:32 10° NW 22:18:58 48° WSW 22:20:19 40° SSW
Cosmos 1544 4.1 22:20:20 36° ENE 22:20:20 36° ENE 22:23:23 10° NNE
COSMOS 2428 2.8 22:14:33 10° NNW 22:20:19 72° ENE 22:22:36 37° SE
ATLAS 3B R/B 2.5 22:21:12 38° SSW 22:23:51 69° SE 22:30:29 10° NE
Cosmos 489 Rocket 4.4 22:18:12 10° NNW 22:24:35 89° ENE 22:26:57 41° SSE
Okean 2 3.6 22:20:35 10° N 22:24:39 58° ENE 22:25:03 55° ESE
ALOS 2 2.9 22:27:44 48° SW 22:28:15 51° W 22:32:34 10° NNW
SL-4 R/B 3.9 22:26:16 10° W 22:27:13 17° W 22:27:13 17° W
Nimbus 7 Rocket 4.3 22:24:10 10° NNE 22:30:03 86° WNW 22:32:15 41° SSW
Cosmos 1725 Rocket 4.4 22:27:19 30° SW 22:30:24 56° WNW 22:36:39 10° N
USA 238 4.5 22:25:05 10° WSW 22:31:38 51° NNW 22:38:30 10° NE
Cosmos 1674 Rocket 4.1 22:28:36 10° NNW 22:32:44 45° W 22:33:13 43° WSW
Cosmos 2297 Rocket 4.2 22:34:20 13° ESE 22:35:25 14° E 22:38:06 10° ENE
Cosmos 1536 3.8 22:34:39 34° W 22:35:25 37° WNW 22:39:09 10° N
Cosmos 1666 4.2 22:37:32 25° W 22:38:17 27° WNW 22:41:32 10° N
Cosmos 1743 2.6 22:38:17 81° W 22:38:21 81° W 22:42:16 10° N
Cosmos 2333 Rocket 2.2 22:33:55 10° NNW 22:39:42 75° WSW 22:41:19 48° S
Cosmos 1271 Rocket 3.0 22:37:14 10° NNW 22:40:47 54° W 22:40:47 54° W
NOSS 0 Rocket 4.1 22:37:43 10° NNW 22:43:59 70° NE 22:47:14 30° SE
Cosmos 2237 Rocket 2.9 22:38:32 10° NNW 22:44:02 49° NE 22:47:32 22° ESE
Lacrosse 4 Rocket 1.3 22:45:23 69° SE 22:45:25 69° ESE 22:49:37 10° NE
Cosmos 1025 Rocket 4.3 22:43:15 10° N 22:47:07 31° ENE 22:48:18 27° E
Cosmos 1733 Rocket 4.3 22:50:59 28° WSW 22:52:14 33° WNW 22:56:17 10° N
Meteor 2-11 Rocket 4.4 22:51:23 42° SSW 22:53:33 77° WNW 22:59:42 10° N
Cosmos 44 Rocket 3.2 22:51:24 10° NW 22:56:23 81° SW 22:57:31 54° SSE
CENTAUR R/B 3.4 22:53:25 10° WSW 22:59:40 52° NNW 23:07:05 10° NE
Cosmos 968 Rocket 3.3 22:59:01 53° SSW 23:00:14 89° NW 23:05:25 10° NNE
Cosmos 1975 2.6 23:02:22 83° S 23:02:31 89° E 23:06:35 10° N
Resurs 1-4 Rocket 4.1 23:02:41 10° NE 23:06:07 17° E 23:08:21 14° ESE
Cosmos 1354 Rocket 4.1 23:07:09 51° SSE 23:08:21 67° ESE 23:13:40 10° NNE
Cosmos 1782 Rocket 3.4 23:10:37 69° SSW 23:11:08 84° WNW 23:15:30 10° N
USA 267 3.8 23:05:12 10° E 23:11:36 59° N 23:18:00 10° WNW
Cosmos 1707 2.8 23:12:01 10° N 23:15:56 68° ENE 23:16:13 65° ESE
Cosmos 1842 3.8 23:13:59 10° NNW 23:17:41 45° W 23:17:41 45° W
Cosmos 1464 Rocket 3.9 23:15:36 43° SSW 23:17:52 88° W 23:24:07 10° N
Cosmos 1908 Rocket 4.3 23:18:33 38° WSW 23:19:23 42° WNW 23:23:34 10° N
Cosmos 2344 4.3 23:11:53 10° NW 23:20:59 88° NE 23:33:40 10° SE
Helios 1B rocket 2.6 23:17:25 10° NNE 23:21:28 57° ESE 23:21:48 55° SE
CZ-4 R/B 3.9 23:16:47 10° NNE 23:21:48 77° ESE 23:23:00 52° S
Meteor 1-21 4.4 23:17:58 10° NNW 23:23:43 60° W 23:25:22 44° SSW
Cosmos 2227 Rocket 3.5 23:22:42 23° SE 23:24:17 27° ESE 23:28:57 10° NE
Cosmos 1674 4.1 23:24:19 10° N 23:27:40 30° ENE 23:28:43 26° ESE
COSMOS 2487 4.3 23:32:14 20° WNW 23:32:58 22° NW 23:35:43 10° N
Nadezhda 4 Rocket 4.0 23:29:26 10° NNW 23:35:44 72° W 23:38:03 40° SSW
Cosmos 2219 Rocket 3.0 23:32:36 10° NW 23:37:37 33° WSW 23:38:19 32° WSW
Meteor 1-29 3.3 23:37:50 10° NNE 23:41:13 56° E 23:41:13 56° E
MOZ.5/SAFIR/RUBIN 5/SL-8 4.1 23:39:37 34° SE 23:41:33 62° ENE 23:46:15 10° N
Cosmos 1975 Rocket 4.0 23:37:55 10° NNW 23:42:00 35° W 23:42:25 34° WSW
Cosmos 1437 3.5 23:42:19 10° NNW 23:44:31 44° NNW 23:44:31 44° NNW
Okean 2 Rocket 3.0 23:45:22 58° S 23:46:15 90° E 23:50:47 10° N
Cosmos 2034 Rocket 4.0 23:43:53 39° SSW 23:46:22 77° W 23:52:44 10° N
Cosmos 1503 Rocket 4.4 23:45:55 36° WSW 23:47:58 59° WNW 23:53:18 10° NNE
Landsat 4 4.3 23:45:06 10° N 23:48:46 46° WNW 23:49:12 43° W
ADEOS II 4.3 23:46:31 10° NE 23:49:51 17° E 23:53:11 10° SE
Cosmos 1092 Rocket 3.9 23:43:42 10° N 23:50:00 86° W 23:52:44 36° S
SL-16 R/B 2.8 23:46:15 22° SE 23:50:28 67° ENE 23:56:42 10° NNW
GEOS 3 Rocket 4.2 23:46:35 10° NE 23:51:47 46° SE 23:53:18 37° SSE
CZ-2D R/B 3.2 23:47:15 10° NNE 23:52:22 38° E 23:54:55 25° SE
ERBS 4.2 23:49:47 10° WNW 23:51:02 21° WNW 23:51:02 21° WNW
Cosmos 1300 Rocket 3.4 23:52:28 59° SSW 23:53:14 83° W 23:57:35 10° N
Iridium 51 4.3 23:49:22 10° N 23:53:45 84° E 23:54:30 59° SSE
SL-16 R/B 2.7 23:48:32 10° NNW 23:54:13 61° NE 23:59:41 11° SE
